     2              OBSERVATION DATA    GPS                 RINEX VERSION / TYPE
teqc 1998Mar9 19980311 23:27:48UTC                          PGM / RUN BY / DATE
                                                            COMMENT
Original Marker Name: unknown                               COMMENT
Campaign Name: Cholame 1989                                 COMMENT
4-Character Station Name: BOB1                              COMMENT
6-Character Antenna Code: TI4100                            COMMENT
Vertical Measurement Point: PAE                             COMMENT
Vertical Offset to Rinex Ref. Point: 0.0000                 COMMENT
Radial Measurement Point: PAE                               COMMENT
Radial Offset to Rinex Ref. Point: 0.0842                   COMMENT
Antenna Height from Field Measurement: 1.4480 m             COMMENT
Original XYZ: 0.0000 0.0000 0.0000                          COMMENT
New XYZ position is based on association with SCEC monument COMMENT
E1F1B8M7+0011. Position of that monument is believed to be  COMMENT
valid to within 1 m horizontally; vertical accuracy         COMMENT
should be no worse than 3-times this value.                 COMMENT
                                                            COMMENT
Revised Rinex header created by UCSD GPS archive for        COMMENT
GSAC on 26-May-1999 (1999:146) 20:53:26 GMT                 COMMENT
For assistance contact dagnew@ucsd.edu or hjohnson@ucsd.edu COMMENT
                                                            COMMENT
BOB                                                         MARKER NAME
unknown UCLA                                                OBSERVER / AGENCY
UN04 TI 4100 2.1                                            REC # / TYPE / VERS
TI4100 TI 4100                                              ANT # / TYPE
 -2606712.0000 -4504282.0000  3676156.0000                  APPROX POSITION XYZ
        1.4456        0.0000        0.0000                  ANTENNA: DELTA H/E/N
     1     1     0                                          WAVELENGTH FACT L1/2
     4    P1    P2    L1    L2                              # / TYPES OF OBSERV
     0                                                      INTERVAL
  1989    11    27     9    17   59.000000                  TIME OF FIRST OBS
  1989    11    27    16     0   59.000000                  TIME OF LAST OBS
     0                                                      # OF SATELLITES
                                                            END OF HEADER
 89 11 27  9 17 58.8800000  0  4G 2G 6G11G 9
                                    733011.881 1
  19952288.142    19952289.724     1992530.293 9  -3646672.949 9
  21643818.940    21643823.281     1137539.355 9  -4464253.619 9
  22738154.561    22738156.275      274262.564 7   -430287.079 6
 89 11 27  9 18 28.8800000  0  4G 2G 6G11G 9
                                    662793.059 1    228000.000 9
  19942027.652    19942028.359     1938609.431 9  -3688689.199 8
  21623421.343    21623424.627     1030350.115 8  -4547777.688 9
  22721965.483    22721964.947      189187.802 6   -496579.092 7
 89 11 27  9 18 59.0800000  0  4G 2G 6G11G 9
                                    634395.773 1    457520.000 9
  19931719.878    19931720.643     1884445.793 6  -3730894.616 5
  21602926.050    21602929.241      922643.905 9  -4631704.580 9
  22705659.151    22705660.924      103503.190 8   -563346.335 6
 89 11 27  9 19 29.0800000  0  4G 2G 6G11G 9
                                   -489066.758 1    685520.000 9
  19921503.512    19921505.833     1830758.133 9  -3772729.135 8
  21582604.752    21582607.274      815850.983 9  -4714919.828 8
  22689452.931    22689453.796       18344.506 8   -629703.801 6
 89 11 27  9 19 59.0800000  0  4G 2G 6G11G 9
                                   -617978.938 1    913520.000 9
  19911309.288    19911311.385     1777188.494 9  -3814471.697 8
  21562320.039    21562324.029      709259.941 9  -4797977.780 9
  22673242.143    22673242.199      -66854.990 8   -696093.006 6
 89 11 27  9 20 29.0800000  0  4G 2G 6G11G 9
                                   -796955.376 1   1141520.000 9
  19901138.944    19901139.879     1723738.450 9  -3856121.067 8
  21542075.781    21542078.766      602873.448 9  -4880876.325 9
  22657021.082    22657021.632     -152095.064 9   -762513.922 6
 89 11 27  9 20 59.0800000  0  4G 2G 6G11G 9
                                   -893617.525 1   1369520.000 9
  19890990.590    19890991.591     1670409.362 8  -3897676.201 9
  21521870.911    21521875.354      496694.757 9  -4963612.955 9
  22640792.501    22640793.333     -237374.885 9   -828965.758 6
 89 11 27  9 21 29.0800000  0  4G 2G 6G11G 9
                                  -1092499.862 1   1597520.000 9
  19880865.948    19880867.109     1617202.407 9  -3939136.151 8
  21501705.654    21501709.234      390726.727 9  -5046185.450 9
  22624557.382    22624557.564     -322694.109 9   -895448.252 6
 89 11 27  9 21 59.0800000  0  4G 2G 6G11G 9
                                  -1194493.639 1   1825520.000 9
  19870763.714    19870765.837     1564118.819 9  -3980499.967 9
  21481581.369    21481585.090      284971.849 9  -5128591.825 9
  22608314.328    22608313.805     -408052.136 4   -961961.019 5
 89 11 27  9 22 29.0800000  0  4G 2G 6G11G 9
                                  -1359809.590 1   2053520.000 9
  19860685.679    19860687.167     1511160.179 9  -4021766.433 8
  21461498.550    21461501.523      179432.942 8  -5210829.909 8
  22592064.413    22592064.905     -493448.434 6  -1028503.628 5
 89 11 27  9 22 59.0800000  0  4G 2G 6G11G 9
                                  -1513878.135 1   2281520.000 9
  19850632.415    19850633.380     1458327.960 9  -4062934.391 8
  21441456.528    21441459.223       74113.502 9  -5292896.978 9
  22575807.602    22575808.746     -578881.966 4  -1095075.179 2
 89 11 27  9 23 29.0800000  0  4G 2G 6G11G 9
                                  -1593428.315 4   2509520.000 9
  19840603.778    19840605.070     1405623.589 9  -4104002.717 9
  21421456.852    21421459.940      -30983.656 9  -5374790.865 8
  22559541.813    22559542.663     -664352.362 8  -1161675.487 7
 89 11 27  9 23 59.0800000  0  4G 2G 6G11G 9
                                  -1956439.885 9   2737520.000 9
  19830597.983    19830601.534     1353048.546 9  -4144970.275 8
  21401499.858    21401504.400     -135855.521 9  -5456509.171 9
  22543269.550    22543271.884     -749858.811 9  -1228303.928 7
 89 11 27  9 24 29.0800000  0  4G 2G 6G11G 9
  21390411.638    21390414.308    -1877438.071 9   2885308.003 9
  19820618.418    19820620.516     1300604.261 9  -4185835.945 8
  21381587.649    21381590.086     -240499.060 9  -5538049.563 8
  22526991.344    22526994.079     -835400.799 9  -1294959.983 8
 89 11 27  9 24 59.0800000  0  4G 2G 6G11G 9
  21405456.634    21405458.867    -1798379.249 9   2946912.239 9
  19810664.879    19810665.209     1248292.081 9  -4226598.679 9
  21361718.951    21361720.826     -344911.578 8  -5619409.958 9
  22510706.695    22510708.167     -920977.694 9  -1361643.252 7
 89 11 27  9 25 29.0800000  0  4G 2G 6G11G 9
  21420511.208    21420513.415    -1719265.027 9   3008559.648 8
  19800735.022    19800736.069     1196113.565 9  -4267257.260 9
  21341894.086    21341897.211     -449090.176 9  -5700588.075 8
  22494415.216    22494418.424    -1006588.645 9  -1428353.121 8
 89 11 27  9 25 59.0800000  0  4G 2G 6G11G 9
  21435576.743    21435578.971    -1640095.584 9   3070250.083 8
  19790831.394    19790833.486     1144070.163 9  -4307810.552 9
  21322114.006    21322117.792     -553032.188 9  -5781581.823 9
  22478118.309    22478119.540    -1092232.989 9  -1495088.966 8
 89 11 27  9 26 29.0800000  0  4G 2G 6G11G 9
  21450652.039    21450654.702    -1560872.777 9   3131982.118 9
  19780954.126    19780955.869     1092163.078 9  -4348257.628 8
  21302380.398    21302383.741     -656734.661 8  -5862388.907 9
  22461813.775    22461816.551    -1177910.416 9  -1561850.600 8
 89 11 27  9 26 59.0800000  0  4G 2G 6G11G 9
  21465738.010    21465739.593    -1481597.033 9   3193755.396 8
  19771103.209    19771103.864     1040394.135 9  -4388597.046 8
  21282693.251    21282695.941     -760194.374 9  -5943006.845 9
  22445503.840    22445506.719    -1263619.901 8  -1628637.203 9
 89 11 27  9 27 29.0800000  0  4G 2G 6G11G 9
  21480833.307    21480836.482    -1402269.450 9   3255569.068 9
  19761277.520    19761279.248      988764.664 9  -4428827.805 8
  21263050.554    21263055.368     -863408.454 9  -6023433.395 9
  22429188.039    22429190.623    -1349360.763 8  -1695448.274 9
 89 11 27  9 27 59.0800000  0  4G 2G 6G11G 9
  21495939.045    21495940.802    -1322890.604 9   3317422.695 8
  19751480.330    19751481.300      937276.178 9  -4468948.696 8
  21243458.089    21243460.878     -966374.208 9  -6103666.412 9
  22412865.562    22412868.137    -1435132.296 9  -1762283.214 8
 89 11 27  9 28 29.0800000  0  4G 2G 6G11G 9
  21511053.871    21511055.901    -1243461.330 9   3379315.614 8
  19741709.393    19741710.235      885930.318 9  -4508958.449 8
  21223912.341    21223914.995    -1069088.624 9  -6183703.602 9
  22396539.605    22396541.475    -1520933.712 8  -1829141.456 8
 89 11 27  9 28 59.0800000  0  4G 2G 6G11G 9
  21526178.299    21526180.049    -1163983.373 9   3441246.465 8
  19731965.747    19731967.220      834728.441 9  -4548856.008 8
  21204414.189    21204417.088    -1171548.761 9  -6263542.655 9
  22380205.429    22380207.889    -1606764.273 8  -1896022.410 8
 89 11 27  9 29 29.0800000  0  4G 2G 6G11G 9
  21541311.591    21541312.798    -1084457.314 9   3503214.789 8
  19722249.610    19722250.975      783672.047 9  -4588640.197 8
  21184965.462    21184968.653    -1273752.100 9  -6343181.594 9
  22363868.580    22363869.700    -1692623.458 8  -1962925.661 8
 89 11 27  9 29 59.0800000  0  4G 2G 6G11G 9
  21556452.983    21556456.245    -1004882.978 9   3565220.751 8
  19712562.898    19712563.505      732763.017 9  -4628309.572 9
  21165566.272    21165569.859    -1375695.428 9  -6422617.913 9
  22347524.459    22347525.588    -1778510.141 8  -2029850.347 7
 89 11 27  9 30 29.0800000  0  4G 2G 6G11G 9
  21571605.431    21571606.167     -925262.220 9   3627262.851 9
  19702902.873    19702904.275      682002.675 9  -4667863.080 9
  21146217.144    21146220.781    -1477375.998 9  -6501849.509 9
  22331175.502    22331177.237    -1864423.732 8  -2096796.001 8
 89 11 27  9 30 59.0800000  0  4G 2G 6G11G 9
  21586763.799    21586767.408     -845595.370 8   3689340.864 8
  19693272.320    19693274.418      631392.513 9  -4707299.550 8
  21126918.565    21126921.655    -1578791.157 9  -6580874.290 8
  22314820.829    22314822.816    -1950363.532 8  -2163762.097 8
 89 11 27  9 31 29.0800000  0  4G 2G 6G11G 9
  21601933.835    21601936.289     -765883.208 8   3751454.169 8
  19683670.571    19683672.306      580934.327 9  -4746617.611 9
  21107671.701    21107674.288    -1679937.739 9  -6659689.785 9
  22298460.416    22298463.900    -2036328.399 8  -2230747.698 8
 89 11 27  9 31 59.0800000  0  4G 2G 6G11G 9
  21617110.568    21617114.230     -686126.746 9   3813602.021 8
  19674097.951    19674098.975      530629.337 9  -4785816.303 9
  21088475.225    21088477.815    -1780813.080 9  -6738293.930 9
  22282099.630    22282101.791    -2122317.854 8  -2297752.446 8
 89 11 27  9 32 29.0800000  0  4G 2G 6G11G 9
  21632296.229    21632298.443     -606326.825 9   3875783.736 8
  19664554.242    19664555.374      480479.328 9  -4824894.225 8
  21069331.823    21069332.895    -1881414.331 9  -6816684.495 8
  22265730.921    22265733.415    -2208330.906 7  -2364775.606 7
 89 11 27  9 33 29.0800000  0  4G 2G 6G11G 9
  21662691.398    21662693.943     -446599.808 9   4000246.276 9
  19645556.886    19645559.291      380650.536 9  -4902682.865 8
  21031202.715    21031205.039    -2081783.876 9  -6972816.586 8
  22232982.450    22232983.968    -2380425.248 8  -2498875.110 7
 89 11 27  9 33 59.0800000  0  4G 2G 6G11G 9
  21677901.384    21677904.238     -366674.146 9   4062525.981 9
  19636104.916    19636105.332      330974.836 9  -4941391.195 8
  21012217.778    21012220.811    -2181546.513 9  -7050553.699 9
  22216602.623    22216606.596    -2466504.710 8  -2565950.026 9
 89 11 27  9 34 29.0800000  0  4G 2G 6G11G 9
  21693118.999    21693120.595     -286707.911 9   4124837.292 9
  19626683.634    19626683.719      281460.738 9  -4979973.604 8
  20993288.425    20993291.602    -2281023.623 9  -7128068.304 9
  22200217.938    22200220.760    -2552604.147 9  -2633040.511 8
 89 11 27  9 34 59.0800000  0  4G 2G 6G11G 9
  21708343.708    21708345.540     -206702.467 9   4187179.169 9
  19617291.597    19617292.829      232109.757 9  -5018428.906 9
  20974413.540    20974416.368    -2380212.568 9  -7205358.367 9
  22183831.547    22183832.889    -2638723.024 9  -2700146.110 8
 89 11 27  9 35 29.0800000  0  4G 2G 6G11G 9
  21723575.235    21723576.883     -126657.863 9   4249551.558 9
  19607931.823    19607932.550      182923.619 9  -5056755.764 7
  20955593.889    20955595.810    -2479110.308 9  -7282421.539 9
  22167439.141    22167441.528    -2724860.054 8  -2767265.874 8
 89 11 27  9 35 59.0800000  0  4G 2G 6G11G 9
  21738814.281    21738816.778      -46575.354 9   4311953.477 9
  19598602.929    19598605.023      133903.900 9  -5094952.931 9
  20936829.642    20936833.172    -2577714.271 9  -7359255.769 9
  22151045.895    22151047.333    -2811014.820 8  -2834399.446 9
 89 11 27  9 36 29.0800000  0  4G 2G 6G11G 9
  21754060.860    21754062.670       33544.635 9   4374384.589 9
  19589307.111    19589309.431       85052.296 9  -5133019.094 9
  20918122.861    20918125.546    -2676021.454 9  -7435858.752 8
  22134647.652    22134649.139    -2897185.953 9  -2901545.766 8
 89 11 27  9 36 59.0800000  0  4G 2G 6G11G 9
  21769314.209    21769315.510      113701.136 9   4436844.181 9
  19580043.496    19580044.460       36370.508 9  -5170952.946 8
  20899472.451    20899474.878    -2774029.390 9  -7512228.563 8
  22118246.258    22118248.445    -2983372.776 8  -2968704.320 8
 89 11 27  9 37 29.0800000  0  4G 2G 6G11G 9
  21784574.071    21784576.032      193893.152 9   4499331.428 9
  19570811.914    19570814.064      -12139.967 8  -5208753.314 9
  20880879.220    20880882.300    -2871735.538 9  -7588363.207 9
  22101843.356    22101843.439    -3069574.432 8  -3035874.415 8
 89 11 27  9 37 59.0800000  0  4G 2G 6G11G 9
  21799840.946    21799842.147      274120.739 9   4561846.402 8
  19561612.301    19561614.575      -60477.304 9  -5246418.759 8
  20862344.548    20862347.939    -2969136.812 9  -7664260.284 8
  22085436.906    22085438.374    -3155790.125 8  -3103055.461 8
 89 11 27  9 38 29.0800000  0  4G 2G 6G11G 9
  21815113.388    21815116.435      354382.973 9   4624388.373 9
  19552447.584    19552449.950     -108639.829 9  -5283947.984 8
  20843868.420    20843870.947    -3066230.430 9  -7739917.622 9
  22069026.770    22069028.673    -3242018.451 9  -3170246.354 7
 89 11 27  9 38 59.0800000  0  4G 2G 6G11G 9
  21830394.181    21830395.647      434678.775 9   4686956.494 8
  19543316.775    19543318.290     -156625.783 9  -5321339.619 8
  20825451.027    20825454.355    -3163013.947 9  -7815333.338 9
  22052616.179    22052617.683    -3328258.614 8  -3237446.464 8
 89 11 27  9 39 29.0800000  0  4G 2G 6G11G 9
  21845679.951    21845681.865      515007.966 9   4749550.634 8
  19534220.077    19534222.257     -204433.314 9  -5358592.230 9
  20807093.073    20807096.669    -3259484.183 9  -7890504.938 9
  22036202.800    22036204.634    -3414509.445 9  -3304654.890 9
 89 11 27  9 39 59.0800000  0  4G 2G 6G11G 9
  21860972.331    21860974.556      595369.691 8   4812170.131 8
  19525157.013    19525158.341     -252060.851 9  -5395704.601 8
  20788795.700    20788798.223    -3355638.605 9  -7965430.428 9
  22019788.650    22019789.838    -3500770.161 8  -3371871.017 8
 89 11 27  9 40 29.0800000  0  4G 2G 6G11G 9
  21876270.831    21876273.536      675763.006 8   4874814.224 8
  19516128.108    19516129.586     -299506.519 9  -5432675.236 8
  20770558.472    20770560.612    -3451474.414 9  -8040107.664 8
  22003371.582    22003373.870    -3587039.481 9  -3439093.846 8
 89 11 27  9 40 59.0800000  0  4G 2G 6G11G 9
  21891575.845    21891578.332      756187.131 9   4937482.329 7
  19507134.118    19507134.845     -346768.925 9  -5469503.079 8
  20752382.041    20752386.194    -3546989.222 9  -8114534.753 8
  21986954.568    21986955.990    -3673316.932 8  -3506323.005 8
 89 11 27  9 41 29.0800000  0  4G 2G 6G11G 9
  21906885.487    21906887.488      836641.514 9   5000174.029 9
  19498175.801    19498176.720     -393846.240 9  -5506186.680 9
  20734267.823    20734271.192    -3642180.381 9  -8188709.660 8
  21970534.949    21970537.244    -3759601.370 7  -3573557.614 8
 89 11 27  9 41 59.0800000  0  4G 2G 6G11G 9
  21922200.367    21922202.696      917126.039 8   5062889.207 7
  19489252.680    19489253.730     -440736.262 9  -5542724.346 9
  20716216.005    20716217.787    -3737044.362 9  -8262629.641 8
  21954113.364    21954116.928    -3845891.168 7  -3640796.405 8
 89 11 27  9 42 29.0800000  0  4G 2G 6G11G 9
  21937521.792    21937524.023      997639.248 7   5125626.740 7
  19480365.772    19480367.171     -487437.690 9  -5579115.054 8
  20698227.063    20698229.744    -3831579.045 9  -8336293.017 9
  21937692.893    21937694.752    -3932185.731 9  -3708038.898 8
 89 11 27  9 42 59.0800000  0  4G 2G 6G11G 9
  21952848.478    21952851.073     1078180.839 8   5188386.383 7
  19471514.198    19471516.039     -533948.620 9  -5615357.331 9
  20680301.017    20680302.734    -3925781.940 9  -8409697.848 8
  21921270.389    21921272.321    -4018483.829 8  -3775284.124 8
 89 11 27  9 43 29.0800000  0  4G 2G 6G11G 9
  21968180.289    21968182.369     1158750.510 8   5251167.914 8
  19462700.157    19462702.070     -580267.270 9  -5651449.779 9
  20662438.547    20662440.562    -4019650.244 9  -8482841.964 8
  21904849.120    21904851.322    -4104784.498 8  -3842531.366 9
 89 11 27  9 43 59.0800000  0  4G 2G 6G11G 9
  21983516.593    21983519.941     1239347.210 9   5313970.492 8
  19453923.032    19453924.922     -626391.845 9  -5687391.011 9
  20644640.315    20644641.954    -4113181.348 9  -8555723.354 8
  21888425.800    21888427.460    -4191086.673 9  -3909779.811 8
 89 11 27  9 44 29.0800000  0  4G 2G 6G11G 9
  21998859.698    21998861.364     1319970.568 9   5376793.872 8
  19445183.491    19445185.259     -672320.380 9  -5723179.461 8
  20626906.359    20626908.390    -4206372.197 9  -8628339.573 8
  21872003.550    21872004.571    -4277389.040 9  -3977028.368 8
 89 11 27  9 44 59.0800000  0  4G 2G 6G11G 9
  22014206.375    22014208.627     1400619.494 9   5439637.151 8
  19436481.326    19436482.346     -718051.423 9  -5758814.035 8
  20609237.880    20609240.527    -4299220.618 9  -8700688.993 8
  21855581.076    21855581.276    -4363690.632 9  -4044276.346 8
 89 11 27  9 45 29.0800000  0  4G 2G 6G11G 9
  22029558.098    22029560.291     1481294.137 9   5502500.487 8
  19427817.195    19427818.613     -763582.671 9  -5794292.925 9
  20591634.874    20591638.375    -4391723.388 9  -8772769.063 8
  21839158.351    21839159.081    -4449990.073 9  -4111522.655 8
 89 11 27  9 45 59.0800000  0  4G 2G 6G11G 9
  22044915.110    22044916.917     1561993.777 9   5565383.306 8
  19419190.230    19419192.699     -808912.376 9  -5829614.750 8
  20574098.478    20574100.519    -4483878.176 9  -8844577.951 9
  21822736.795    21822737.480    -4536286.190 9  -4178766.361 8
 89 11 27  9 46 29.0800000  0  4G 2G 6G11G 9
  22060275.780    22060278.323     1642717.467 9   5628284.856 8
  19410603.632    19410604.506     -854038.806 9  -5864778.192 8
  20556627.983    20556630.191    -4575682.246 9  -8916113.574 9
  21806315.349    21806317.340    -4622578.044 8  -4246006.737 9
 89 11 27  9 46 59.0800000  0  4G 2G 6G11G 9
  22075641.990    22075643.906     1723465.000 9   5691204.982 9
  19402055.082    19402056.376     -898960.170 9  -5899781.838 9
  20539226.814    20539229.140    -4667133.074 9  -8987373.943 9
  21789896.189    21789897.665    -4708864.434 9  -4313242.889 8
 89 11 27  9 47 29.0800000  0  4G 2G 6G11G 9
  22091012.969    22091014.833     1804235.332 9   5754142.869 9
  19393546.282    19393548.002     -943674.617 9  -5934624.263 9
  20521891.157    20521893.470    -4758228.230 9  -9058357.164 9
  21773477.553    21773478.642    -4795144.118 9  -4380473.808 8
 89 11 27  9 47 59.0800000  0  4G 2G 6G11G 9
  22106386.735    22106388.389     1885028.361 9   5817098.435 9
  19385076.766    19385078.425     -988180.288 9  -5969304.003 8
  20504624.823    20504627.317    -4848965.248 9  -9129061.297 9
  21757061.361    21757062.193    -4881415.864 9  -4447698.539 8
 89 11 27  9 48 29.0800000  0  4G 2G 6G11G 9
  22121765.095    22121769.015     1965843.265 9   5880071.052 9
  19376647.984    19376649.943    -1032475.285 9  -6003819.564 9
  20487426.713    20487429.542    -4939341.004 9  -9199483.948 9
  21740644.865    21740647.955    -4967678.340 9  -4514916.044 8
 89 11 27  9 48 59.0800000  0  4G 2G 6G11G 9
  22137147.732    22137150.682     2046679.748 9   5943060.484 9
  19368259.275    19368261.343    -1076557.739 9  -6038169.526 9
  20470297.349    20470301.784    -5029353.143 9  -9269623.244 8
  21724231.667    21724234.165    -5053930.578 9  -4582125.561 7
 89 11 27  9 49 29.0800000  0  4G 2G 6G11G 9
  22152534.108    22152536.872     2127536.887 9   6006066.009 9
  19359911.587    19359912.834    -1120425.748 9  -6072352.371 8
  20453238.082    20453241.237    -5118999.489 9  -9339477.512 8
  21707820.499    21707822.477    -5140171.347 9  -4649326.156 8
 89 11 27  9 49 59.0800000  0  4G 2G 6G11G 9
  22167924.910    22167928.413     2208414.470 9   6069087.459 9
  19351605.290    19351607.640    -1164077.723 9  -6106366.897 8
  20436249.570    20436252.031    -5208277.473 9  -9409044.750 8
  21691412.985    21691413.905    -5226399.564 8  -4716516.950 8
 89 11 27  9 50 29.0800000  0  4G 2G 6G11G 9
  22183320.077    22183322.689     2289311.496 9   6132124.063 9
  19343340.523    19343342.179    -1207511.559 9  -6140211.439 8
  20419331.410    20419334.359    -5297184.266 9  -9478322.738 9
  21675005.265    21675007.877    -5312613.723 8  -4783696.799 8
 89 11 27  9 50 59.0800000  0  4G 2G 6G11G 9
  22198717.486    22198720.577     2370227.462 8   6195175.429 9
  19335116.536    19335118.784    -1250725.445 9  -6173884.589 9
  20402484.416    20402487.092    -5385717.229 9  -9547309.433 9
  21658602.499    21658604.804    -5398812.729 8  -4850864.837 8
 89 11 27  9 51 29.0800000  0  4G 2G 6G11G 9
  22214117.843    22214120.528     2451162.603 8   6258241.714 9
  19326935.317    19326937.319    -1293717.209 9  -6207384.656 9
  20385708.587    20385710.935    -5473874.119 9  -9616003.096 9
  21642203.057    21642205.165    -5484994.881 8  -4918019.744 8
 89 11 27  9 51 59.0800000  0  4G 2G 6G11G 9
  22229524.225    22229525.805     2532115.503 7   6321321.847 9
  19318796.908    19318798.426    -1336485.282 9  -6240710.419 9
  20369005.067    20369008.343    -5561652.299 9  -9684401.652 9
  21625806.046    21625808.235    -5571159.389 9  -4985160.884 7
 89 11 27  9 52 29.0800000  0  4G 2G 6G11G 9
  22244930.955    22244934.550     2613086.012 7   6384415.676 9
  19310702.655    19310703.007    -1379027.785 9  -6273860.413 8
  20352374.093    20352376.378    -5649049.521 9  -9752503.371 9
  21609414.617    21609415.033    -5657304.841 9  -5052287.212 8
 89 11 27  9 52 59.0800000  0  4G 2G 6G11G 9
  22260342.478    22260345.560     2694073.279 6   6447522.554 9
  19302650.014    19302651.268    -1421342.614 9  -6306833.010 8
  20335815.494    20335817.478    -5736063.148 9  -9820306.182 9
  21593024.523    21593026.211    -5743429.883 9  -5119397.596 7
 89 11 27  9 53 29.0800000  0  4G 2G 6G11G 9
  22275758.273    22275761.661     2775077.295 6   6510642.490 8
  19294640.319    19294641.750    -1463427.979 9  -6339626.796 8
  20319330.730    20319334.273    -5822690.797 9  -9887808.222 9
  21576639.281    21576640.965    -5829533.128 8  -5186491.012 7
 89 11 27  9 53 59.0800000  0  4G 2G 6G11G 9
  22291173.529    22291177.537     2856097.482 9   6573775.044 7
  19286675.539    19286677.585    -1505281.909 9  -6372240.236 8
  20302918.925    20302922.002    -5908930.364 9  -9955007.867 9
  21560258.905    21560260.676    -5915613.566 9  -5253566.652 8
 89 11 27  9 54 29.0800000  0  4G 2G 6G11G 9
  22306595.370    22306598.547     2937133.148 8   6636919.673 9
  19278755.309    19278758.571    -1546902.448 9  -6404671.818 9
  20286583.928    20286586.446    -5994778.973 9 -10021902.872 9
  21543882.488    21543885.560    -6001669.225 9  -5320623.012 8
 89 11 27  9 54 59.0800000  0  4G 2G 6G11G 9
  22322018.497    22322021.198     3018183.893 9   6700076.053 8
  19270880.233    19270881.609    -1588287.723 9  -6436920.076 8
  20270321.293    20270323.714    -6080234.455 9 -10088491.536 8
  21527511.765    21527513.428    -6087699.265 8  -5387659.380 8
 89 11 27  9 55 29.0800000  0  4G 2G 6G11G 9
  22337445.408    22337446.919     3099249.626 9   6763244.129 7
  19263049.941    19263052.129    -1629435.716 9  -6468983.434 8
  20254134.843    20254138.190    -6165294.292 9 -10154771.907 9
  21511146.944    21511148.504    -6173702.194 9  -5454674.627 8
 89 11 27  9 55 59.0800000  0  4G 2G 6G11G 9
  22352874.610    22352876.321     3180329.753 9   6826423.428 7
  19255265.121    19255266.918    -1670344.611 9  -6500860.473 8
  20238024.940    20238026.534    -6249956.143 9 -10220742.171 9
  21494785.993    21494787.301    -6259676.627 9  -5521667.664 8
 89 11 27  9 56 29.0800000  0  4G 2G 6G11G 9
  22368306.766    22368310.297     3261423.622 9   6889613.463 6
  19247526.492    19247527.802    -1711012.207 9  -6532549.503 9
  20221989.012    20221991.762    -6334217.464 9 -10286400.326 8
  21478431.220    21478432.913    -6345621.041 8  -5588637.323 8
 89 11 27  9 56 59.0800000  0  4G 2G 6G11G 9
  22383740.376    22383742.922     3342530.509 9   6952813.614 6
  19239834.488    19239835.252    -1751436.854 9  -6564049.224 8
  20206032.689    20206034.435    -6418076.243 9 -10351744.812 8
  21462081.501    21462083.563    -6431534.297 9  -5655582.691 8
 89 11 27  9 57 29.0800000  0  4G 2G 6G11G 9
  22399177.437    22399179.675     3423650.091 9   7016023.691 7
  19232187.309    19232188.704    -1791616.489 8  -6595358.022 9
  20190150.723    20190152.764    -6501529.858 9 -10416773.596 8
  21445739.774    21445740.729    -6517414.890 8  -5722502.624 8
 89 11 27  9 57 59.0800000  0  4G 2G 6G11G 9
  22414616.297    22414617.975     3504782.274 9   7079243.560 7
  19224588.723    19224591.595    -1831549.096 9  -6626474.323 8
  20174348.744    20174350.939    -6584576.009 9 -10481484.863 8
  21429404.575    21429404.689    -6603261.134 9  -5789395.765 9
 89 11 27  9 58 29.0800000  0  4G 2G 6G11G 9
  22430058.189    22430059.695     3585926.602 9   7142472.888 7
  19217037.287    19217039.640    -1871232.464 9  -6657396.428 8
  20158623.175    20158624.983    -6667212.121 9 -10545876.622 7
  21413074.189    21413076.264    -6689071.738 9  -5856261.132 9
 89 11 27  9 58 59.0800000  0  4G 2G 6G11G 9
  22445500.677    22445503.916     3667082.629 9   7205711.327 8
  19209533.822    19209534.945    -1910665.035 9  -6688123.098 8
  20142976.868    20142978.404    -6749436.363 9 -10609947.437 9
  21396751.955    21396753.418    -6774845.477 9  -5923097.790 8
 89 11 27  9 59 29.0800000  0  4G 2G 6G11G 9
  22460946.184    22460949.346     3748249.756 9   7268958.419 9
  19202077.726    19202079.774    -1949844.721 8  -6718652.704 8
  20127408.859    20127410.649    -6831246.654 8 -10673695.693 8
  21380437.306    21380438.463    -6860580.589 9  -5989904.357 7
 89 11 27  9 59 59.0800000  0  4G 2G 6G11G 9
  22476394.890    22476397.297     3829427.391 9   7332213.685 9
  19194671.271    19194672.075    -1988769.515 9  -6748983.707 9
  20111919.470    20111922.566    -6912640.202 9 -10737119.228 8
  21364130.640    21364131.012    -6946275.647 9  -6056679.713 7
 89 11 27 10  0 29.0800000  0  4G 2G 6G11G 9
  22491844.152    22491846.174     3910615.110 9   7395476.806 8
  19187312.578    19187315.314    -2027437.270 8  -6779114.419 7
  20096510.895    20096513.219    -6993614.733 9 -10800216.243 8
  21347831.060    21347832.954    -7031929.339 9  -6123422.829 7
 89 11 27 10  0 59.0800000  0  4G 2G 6G11G 9
  22507295.475    22507297.778     3991812.887 1   7458747.791 1
  19180003.895    19180004.730    -2065846.220 8  -6809043.461 8
  20081181.700    20081185.244    -7074167.975 9 -10862984.979 7
  21331539.418    21331540.243    -7117540.052 9  -6190132.464 8
 89 11 27 10  1 29.0800000  0  4G 2G 6G11G 9
  22522749.877    22522755.043     4073020.034 4   7522026.048 1
  19172745.037    19172745.264    -2103994.595 9  -6838769.460 8
  20065934.155    20065936.963    -7154297.884 9 -10925423.836 9
  21315256.731    21315259.505    -7203106.428 8  -6256807.540 7
 89 11 27 10  1 59.0800000  0  4G 2G 6G11G 9
  22538202.351    22538204.321     4154236.357 1   7585311.427 1
  19165535.217    19165533.328    -2141880.028 1  -6868290.573 1
  20050766.470    20050768.630    -7234002.128 9 -10987531.016 8
  21298982.370    21298984.392    -7288626.645 9  -6323446.642 8
 89 11 27 10  2 29.0800000  0  4G 2G 6G11G 9
  22553660.399    22553662.565     4235461.396 7   7648603.610 9
  19158376.558    19158378.217    -2179500.683 9  -6897605.369 6
  20035680.099    20035683.834    -7313278.847 9 -11049305.072 8
  21282717.477    21282719.212    -7374099.496 8  -6390048.843 8
 89 11 27 10  2 59.0800000  0  4G 2G 6G11G 9
  22569119.183    22569121.934     4316694.466 7   7711902.048 9
  19151268.723    19151269.550    -2216854.417 9  -6926712.163 9
  20020676.617    20020680.621    -7392125.430 9 -11110743.941 8
  21266462.351    21266464.654    -7459523.254 9  -6456612.804 8
 89 11 27 10  3 29.0800000  0  4G 2G 6G11G 9
  22584575.301    22584580.898     4397935.932 6   7775206.994 9
  19144211.479    19144212.690    -2253939.019 9  -6955609.260 8
  20005754.984    20005757.578    -7470539.626 9 -11171845.879 9
  21250216.240    21250217.407    -7544896.054 9  -6523137.033 8
 89 11 27 10  3 59.0800000  0  4G 2G 6G11G 9
  22600040.981    22600042.236     4479185.543 3   7838518.252 9
  19137205.729    19137207.124    -2290752.672 9  -6984295.215 7
  19990915.831    19990918.345    -7548519.249 9 -11232609.208 9
  21233980.007    21233982.558    -7630216.591 9  -6589620.555 8
 89 11 27 10  4 29.0800000  0  4G 2G 6G11G 9
  22615503.306    22615505.446     4560441.388 6   7901834.376 9
  19130252.710    19130253.412    -2327293.807 9  -7012768.829 7
  19976160.233    19976162.622    -7626062.667 9 -11293032.632 8
  21217754.388    21217756.238    -7715483.572 9  -6656062.332 8
 89 11 27 10  4 59.0800000  0  4G 2G 6G11G 9
  22630964.518    22630968.590     4641703.928 7   7965155.750 9
  19123351.011    19123351.235    -2363560.165 9  -7041028.325 8
  19961487.523    19961489.602    -7703167.329 8 -11353114.165 8
  21201538.737    21201541.193    -7800695.279 9  -6722461.053 8
 89 11 27 10  5 29.0800000  0  4G 2G 6G11G 9
  22646429.370    22646434.060     4722973.411 8   8028482.559 9
  19116502.158    19116502.739    -2399549.441 9  -7069071.898 9
  19946898.645    19946901.352    -7779831.517 9 -11412852.465 8
  21185333.668    21185337.683    -7885849.867 9  -6788815.252 8
 89 11 27 10  5 59.0800000  0  4G 2G 6G11G 9
  22661897.055    22661899.491     4804249.054 8   8091814.176 8
  19109706.945    19109708.277    -2435259.577 9  -7096897.971 7
  19932393.963    19932396.795    -7856052.692 9 -11472245.568 8
  21169141.672    21169143.530    -7970945.653 9  -6855123.632 8
 89 11 27 10  6 29.0800000  0  4G 2G 6G11G 9
  22677365.520    22677367.677     4885530.616 9   8155150.412 9
  19102964.411    19102966.046    -2470688.848 8  -7124505.209 8
  19917973.872    19917977.067    -7931829.155 9 -11531292.130 8
  21152959.729    21152962.180    -8055981.180 8  -6921385.068 8
 89 11 27 10  6 59.0800000  0  4G 2G 6G11G 9
  22692832.862    22692835.574     4966817.353 9   8218490.673 9
  19096276.929    19096278.604    -2505835.131 9  -7151891.913 8
  19903639.214    19903642.349    -8007158.643 9 -11589990.406 8
  21136789.092    21136791.547    -8140954.817 8  -6987598.262 9
 89 11 27 10  7 29.0800000  0  4G 2G 6G11G 9
  22708302.335    22708303.979     5048109.627 9   8281835.260 8
  19089642.877    19089643.664    -2540696.411 9  -7179056.541 7
  19889389.537    19889393.503    -8082039.311 9 -11648338.963 8
  21120631.824    21120633.482    -8225864.953 9  -7053761.975 9
 89 11 27 10  7 59.0800000  0  4G 2G 6G11G 9
  22723771.609    22723774.938     5129406.064 9   8345183.079 9
  19083064.445    19083064.303    -2575270.834 9  -7205997.643 8
  19875226.127    19875229.256    -8156468.947 9 -11706336.065 8
  21104486.517    21104488.023    -8310710.087 9  -7119875.048 8
 89 11 27 10  8 29.0800000  0  4G 2G 6G11G 9
  22739242.651    22739246.901     5210707.173 9   8408534.564 8
  19076538.954    19076539.379    -2609556.159 9  -7232713.479 7
  19861148.419    19861152.860    -8230445.569 9 -11763980.153 8
  21088354.129    21088355.291    -8395488.306 9  -7185935.979 8
 89 11 27 10  8 59.0800000  0  4G 2G 6G11G 9
  22754715.557    22754719.969     5292012.481 9   8471889.303 8
  19070070.110    19070071.701    -2643550.456 9  -7259202.533 8
  19847158.976    19847161.611    -8303967.354 8 -11821269.838 8
  21072234.306    21072236.179    -8480197.816 8  -7251943.362 8
 89 11 27 10  9 29.0800000  0  4G 2G 6G11G 9
  22770188.149    22770191.126     5373321.472 9   8535246.926 7
  19063656.908    19063659.506    -2677251.690 9  -7285463.226 8
  19833255.624    19833257.880    -8377032.204 9 -11878203.448 9
  21056128.021    21056129.302    -8564837.358 9  -7317896.227 8
 89 11 27 10  9 59.0800000  0  4G 2G 6G11G 9
  22785660.865    22785664.518     5454634.369 9   8598607.602 6
  19057300.924    19057301.168    -2710657.465 9  -7311493.677 8
  19819438.243    19819441.502    -8449637.726 9 -11934779.176 7
  21040035.811    21040036.411    -8649404.565 9  -7383792.740 8
 89 11 27 10 10 29.0800000  0  4G 2G 6G11G 9
  22801134.676    22801138.542     5535950.194 9   8661970.570 6
  19051000.554    19051000.910    -2743766.089 8  -7337292.608 8
  19805709.608    19805711.590    -8521782.385 9 -11990995.762 7
  21023956.278    21023957.145    -8733898.264 9  -7449631.976 8
 89 11 27 10 10 59.0800000  0  4G 2G 6G11G 9
  22816610.241    22816611.702     5617269.342 9   8725336.115 6
  19044756.569    19044757.448    -2776575.331 8  -7362858.248 8
  19792068.382    19792071.788    -8593464.073 9 -12046851.620 8
  21007891.720    21007894.129    -8818316.224 8  -7515412.197 8
 89 11 27 10 11 29.0800000  0  4G 2G 6G11G 9
  22832085.041    22832084.614     5698591.466 9   8788703.977 6
  19038570.121    19038570.505    -2809083.079 9  -7388188.964 8
  19778517.012    19778520.886    -8664680.749 9 -12102345.113 8
  20991843.498    20991843.640    -8902656.972 9  -7581132.239 7
 89 11 27 10 11 59.0800000  0  4G 2G 6G11G 9
  22847561.493    22847563.551     5779916.070 9   8852073.783 4
  19032442.127    19032444.110    -2841287.631 9  -7413283.419 8
  19765053.697    19765057.319    -8735430.984 9 -12157475.134 9
  20975808.687    20975809.215    -8986918.740 9  -7646790.749 8
 89 11 27 10 12 29.0800000  0  4G 2G 6G11G 9
  22863036.779    22863040.023     5861243.332 9   8915445.681 5
  19026372.843    19026373.602    -2873186.536 9  -7438139.699 8
  19751678.818    19751681.500    -8805712.494 9 -12212239.931 8
  20959788.536    20959790.194    -9071099.576 9  -7712386.209 8
 89 11 27 10 12 59.0800000  0  4G 2G 6G11G 9
  22878512.098    22878514.158     5942572.024 9   8978818.687 6
  19020360.389    19020361.364    -2904778.080 9  -7462756.481 8
  19738395.057    19738397.727    -8875523.786 9 -12266638.320 8
  20943784.389    20943787.406    -9155197.927 9  -7777917.368 9
 89 11 27 10 13 29.0800000  0  4G 2G 6G11G 9
  22893990.914    22893992.953     6023902.417 9   9042192.988 6
  19014407.231    19014409.458    -2936059.749 9  -7487131.799 8
  19725200.262    19725202.135    -8944862.450 9 -12320668.424 8
  20927798.605    20927800.382    -9239211.683 9  -7843382.615 8
 89 11 27 10 13 59.0800000  0  4G 2G 6G11G 9
  22909467.599    22909471.160     6105234.126 9   9105568.320 6
  19008514.690    19008515.924    -2967029.921 9  -7511264.388 8
  19712096.903    19712098.526    -9013726.993 9 -12374329.095 8
  20911828.244    20911830.589    -9323139.133 8  -7908780.623 8
 89 11 27 10 14 29.0800000  0  4G 2G 6G11G 9
  22924945.549    22924947.395     6186567.506 8   9168944.932 6
  19002680.678    19002682.323    -2997686.275 8  -7535152.440 9
  19699082.445    19699084.204    -9082115.725 9 -12427618.992 8
  20895872.528    20895875.422    -9406978.493 8  -7974109.967 8
 89 11 27 10 14 59.0800000  0  4G 2G 6G11G 9
  22940420.571    22940423.250     6267901.960 8   9232322.393 6
  18996906.993    18996908.981    -3028026.880 9  -7558794.475 8
  19686158.705    19686161.314    -9150026.581 9 -12480536.524 8
  20879935.666    20879939.212    -9490727.926 9  -8039369.235 7
 89 11 27 10 15 29.0800000  0  4G 2G 6G11G 9
  22955896.506    22955902.015     6349237.048 7   9295700.278 7
  18991193.438    18991194.884    -3058049.777 9  -7582188.920 8
  19673326.911    19673329.966    -9217457.808 9 -12533080.316 8
  20864016.645    20864018.189    -9574385.615 9  -8104557.020 8
 89 11 27 10 15 59.0800000  0  4G 2G 6G11G 9
  22971375.558    22971379.615     6430573.034 6   9359078.903 8
  18985541.312    18985542.657    -3087752.906 9  -7605334.208 9
  19660586.623    19660589.521    -9284408.139 9 -12585249.383 8
  20848115.628    20848116.721    -9657949.805 9  -8169671.962 8
 89 11 27 10 16 29.0800000  0  4G 2G 6G11G 9
  22986852.103    22986857.184     6511909.312 7   9422457.708 9
  18979950.427    18979952.131    -3117133.892 9  -7628228.470 8
  19647937.515    19647940.710    -9350875.226 9 -12637041.890 8
  20832231.955    20832232.574    -9741418.460 9  -8234712.442 8
 89 11 27 10 16 59.0800000  0  4G 2G 6G11G 9
  23002332.577    23002335.810     6593245.643 6   9485836.609 9
  18974420.390    18974421.957    -3146191.100 9  -7650870.446 8
  19635382.040    19635384.626    -9416857.664 9 -12688456.752 8
  20816366.170    20816367.318    -9824789.684 9  -8299677.018 9
 89 11 27 10 17 29.0800000  0  4G 2G 6G11G 9
  23017808.363    23017813.174     6674581.655 7   9549215.242 9
  18968953.167    18968954.567    -3174922.331 9  -7673258.423 9
  19622919.095    19622920.975    -9482353.774 9 -12739492.653 9
  20800520.423    20800522.206    -9908061.728 9  -8364564.297 8
 89 11 27 10 17 59.0800000  0  4G 2G 6G11G 9
  23033287.406    23033291.428     6755917.298 7   9612593.575 9
  18963548.347    18963550.025    -3203325.728 9  -7695390.922 9
  19610548.713    19610550.273    -9547362.079 9 -12790148.448 8
  20784692.001    20784694.755    -9991232.840 9  -8429372.928 8
 89 11 27 10 18 29.0800000  0  4G 2G 6G11G 9
  23048764.979    23048768.048     6837252.125 8   9675971.293 9
  18958206.752    18958207.649    -3231399.313 9  -7717266.440 8
  19598270.800    19598273.165    -9611880.850 9 -12840422.794 8
  20768886.714    20768887.942   -10074301.231 8  -8494101.526 8
 89 11 27 10 18 59.0800000  0  4G 2G 6G11G 9
  23064242.391    23064245.675     6918586.317 9   9739348.540 9
  18952927.877    18952928.427    -3259140.757 9  -7738883.142 8
  19586086.515    19586088.552    -9675908.174 9 -12890314.207 9
  20753098.382    20753100.735   -10157264.735 9  -8558748.386 8
 89 11 27 10 19 29.0800000  0  4G 2G 6G11G 9
  23079719.645    23079723.347     6999919.020 7   9802724.611 9
  18947710.982    18947713.916    -3286547.896 9  -7760239.354 9
  19573998.218    19573999.141    -9739442.298 1 -12939821.287 1
  20737331.480    20737332.756   -10240121.058 8  -8623311.757 8
 89 11 27 10 19 59.0800000  0  4G 2G 6G11G 9
  23095196.766    23095200.299     7081251.021 9   9866100.148 9
  18942559.482    18942561.981    -3313618.499 9  -7781333.340 8
  19561998.732    19562002.979    -9802481.740 1 -12988942.912 1
  20721584.883    20721586.841   -10322868.196 9  -8687790.002 1
 89 11 27 10 20 29.0800000  0  4G 2G 6G11G 9
  23110673.246    23110677.611     7162582.105 9   9929474.951 9
  18937473.575    18937474.436    -3340350.896 9  -7802163.760 8
  19550099.657    19550102.669    -9865025.131 1 -13037678.008 1
  20705859.511    20705864.246   -10405504.546 1  -8752181.973 1
 89 11 27 10 20 59.0800000  0  4G 2G 6G11G 9
  23126149.835    23126153.539     7243911.702 9   9992848.627 9
  18932451.340    18932453.670    -3366742.994 9  -7822729.027 9
  19538293.640    19538298.216    -9927071.150 1 -13086025.523 1
  20690156.785    20690157.976   -10488027.958 9  -8816485.890 8
 89 11 27 10 21 29.0800000  0  4G 2G 6G11G 9
  23141626.138    23141629.829     7325239.374 9  10056220.775 9
  18927494.283    18927496.085    -3392792.707 9  -7843027.495 8
                                  -9988608.578 1 -13106406.197 1
  20674474.818    20674476.004   -10570436.723 9  -8880700.493 8
 89 11 27 10 21 59.0800000  0  4G 2G 6G11G 9
  23157101.265    23157105.113     7406564.708 9  10119591.098 8
  18922603.366    18922603.222    -3418498.385 9  -7863057.896 8
  19514962.878    19514964.773   -22931737.971 9  29034166.642 7
  20658814.740    20658816.357   -10652728.961 9  -8944824.287 8
 89 11 27 10 22 29.0800000  0  4G 2G 6G11G 9
  23172577.296    23172580.955     7487887.718 9  10182959.606 9
  18917777.508    18917778.243    -3443857.835 9  -7882818.503 8
  19503442.784    19503444.096   -22992282.025 9  28986989.482 8
  20643177.170    20643179.964   -10734902.729 9  -9008855.789 9
 89 11 27 10 22 59.0800000  0  4G 2G 6G11G 9
  23188053.374    23188055.283     7569208.575 9  10246326.486 9
  18913017.837    18913018.470    -3468868.860 8  -7902307.602 9
  19492015.865    19492018.848   -23052322.432 9  28940204.752 8
  20627563.552    20627565.226   -10816955.556 9  -9072793.032 8
 89 11 27 10 23 29.0800000  0  4G 2G 6G11G 9
  23203527.394    23203531.580     7650527.430 9  10309691.735 9
  18908325.383    18908325.982    -3493529.480 9  -7921523.674 8
  19480688.400    19480690.573   -23111857.856 9  28893813.544 7
  20611973.013    20611973.991   -10898885.733 9  -9136634.726 8
 89 11 27 10 23 59.0800000  0  4G 2G 6G11G 9
  23218999.704    23219004.889     7731843.484 9  10373054.855 8
  18903699.202    18903699.925    -3517837.657 9  -7940465.099 8
  19469454.633    19469455.733   -23170886.729 9  28847817.036 7
  20596405.686    20596407.683   -10980691.014 9  -9200379.090 7
 89 11 27 10 24 29.0800000  0  4G 2G 6G11G 9
  23234473.990    23234479.080     7813157.162 9  10436416.089 9
  18899141.029    18899141.887    -3541791.277 9  -7959130.262 9
  19458318.501    19458320.621   -23229407.358 9  28802216.558 7
  20580863.240    20580863.946   -11062369.398 9  -9264024.563 8
 89 11 27 10 24 59.0800000  0  4G 2G 6G11G 9
  23249946.910    23249950.286     7894467.121 9  10499774.460 9
  18894649.320    18894651.402    -3565388.575 9  -7977517.767 9
  19447279.464    19447282.493   -23287418.611 9  28757013.009 8
  20565344.425    20565346.159   -11143919.014 8  -9327569.706 6
 89 11 27 10 25 29.0800000  0  4G 2G 6G11G 9
  23265419.639    23265421.924     7975774.142 9  10563130.519 8
  18890228.907    18890229.379    -3588627.571 8  -7995626.068 7
  19436337.187    19436339.054   -23344919.384 9  28712207.224 8
  20549851.009    20549853.307   -11225337.780 7  -9391012.899 7
 89 11 27 10 25 59.0800000  0  4G 2G 6G11G 9
  23280891.112    23280894.472     8057078.261 9  10626484.314 8
  18885874.128    18885875.910    -3611506.110 8  -8013453.504 9
  19425492.757    19425494.352   -23401908.258 9  28667800.334 7
  20534383.109    20534383.065   -11306623.661 9  -9454352.534 8
 89 11 27 10 26 29.0800000  0  4G 2G 6G11G 9
  23296362.684    23296365.260     8138379.158 9  10689835.625 9
  18881589.581    18881590.581    -3634022.050 9  -8030998.380 8
  19414745.307    19414748.422   -23458383.746 9  28623793.479 7
  20518940.169    20518942.156   -11387774.274 8  -9517586.765 9
 89 11 27 10 26 59.0800000  0  4G 2G 6G11G 9
  23311831.876    23311836.649     8219676.631 9  10753184.235 9
  18877374.638    18877375.748    -3656173.765 9  -8048259.459 8
  19404097.518    19404098.931   -23514345.027 9  28580187.301 9
  20503524.046    20503524.954   -11468787.971 9  -9580714.316 9
 89 11 27 10 27 29.0800000  0  4G 2G 6G11G 9
  23327302.219    23327305.401     8300970.155 9  10816529.809 8
  18873229.411    18873230.424    -3677958.877 9  -8065234.874 8
  19393544.520    19393547.991   -23569790.299 1  28536983.224 1
  20488134.431    20488135.480   -11549662.180 9  -9643733.148 8
 89 11 27 10 27 59.0800000  0  4G 2G 6G11G 9
  23342770.664    23342775.400     8382260.054 9  10879872.530 8
  18869153.568    18869154.959    -3699375.511 9  -8081923.152 8
  19383092.599    19383096.149   -23624718.013 3  28494182.421 3
  20472770.495    20472771.647   -11630395.002 9  -9706641.831 9
 89 11 27 10 28 29.0800000  0  4G 2G 6G11G 9
  23358240.040    23358242.342     8463545.955 9  10943212.171 8
  18865149.430    18865149.432    -3720421.622 9  -8098322.712 8
  19372739.943    19372740.978   -23679127.401 9  28451785.527 9
  20457435.239    20457436.294   -11710984.355 9  -9769438.714 8
 89 11 27 10 28 59.0800000  0  4G 2G 6G11G 9
  23373706.900    23373710.283     8544828.523 9  11006549.196 8
  18861214.519    18861216.170    -3741095.209 9  -8114432.004 7
  19362484.204    19362487.634   -23733016.693 9  28409793.877 7
  20442127.078    20442127.987   -11791427.922 9  -9832121.993 9
 89 11 27 10 29 29.0800000  0  4G 2G 6G11G 9
  23389174.060    23389176.373     8626106.905 9  11069882.937 7
  18857350.785    18857352.885    -3761394.322 8  -8130249.490 8
  19352328.718    19352331.142   -23786385.024 9  28368208.204 8
  20426846.327    20426848.657   -11871723.590 9  -9894690.024 8
 89 11 27 10 29 59.0800000  0  4G 2G 6G11G 9
  23404639.923    23404642.816     8707380.992 9  11133213.383 8
  18853559.764    18853561.260    -3781317.272 9  -8145773.865 9
  19342272.934    19342275.757   -23839231.555 9  28327029.111 9
  20411596.130    20411597.749   -11951869.421 9  -9957141.302 8
 89 11 27 10 30 29.0800000  0  4G 2G 6G11G 9
  23420104.911    23420110.052     8788650.412 8  11196540.183 7
  18849841.402    18849842.718    -3800861.844 9  -8161003.399 9
  19332316.209    19332318.204   -23891554.831 9  28286257.758 8
  20396373.592    20396376.014   -12031863.183 9 -10019474.096 8
 89 11 27 10 30 59.0800000  0  4G 2G 6G11G 9
  23435569.251    23435572.691     8869916.045 8  11259864.000 7
  18846194.309    18846194.782    -3820025.929 9  -8175936.462 8
  19322458.891    19322461.481   -23943353.833 9  28245894.929 8
  20381181.211    20381181.744   -12111702.394 9 -10081686.432 8
 89 11 27 10 31 29.0800000  0  4G 2G 6G11G 9
  23451032.151    23451034.909     8951176.909 9  11323184.144 7
  18842620.664    18842621.329    -3838807.946 9  -8190571.810 8
  19312701.749    19312704.153   -23994627.575 9  28205941.390 8
  20366017.601    20366019.321   -12191385.335 9 -10143777.008 8
 89 11 27 10 31 59.0800000  0  4G 2G 6G11G 9
  23466495.344    23466499.807     9032433.285 8  11386500.769 7
  18839119.673    18839120.195    -3857205.627 8  -8204907.649 8
  19303044.929    19303047.210   -24045374.918 9  28166398.024 9
  20350884.661    20350885.898   -12270909.583 9 -10205743.930 8
 89 11 27 10 32 29.0800000  0  4G 2G 6G11G 9
  23481956.323    23481961.230     9113685.120 8  11449813.857 7
  18835691.667    18835692.159    -3875217.277 9  -8218942.691 8
  19293487.693    19293490.760   -24095594.749 9  28127265.717 8
  20335781.571    20335783.993   -12350273.009 9 -10267585.528 8
 89 11 27 10 32 59.0800000  0  4G 2G 6G11G 9
  23497417.582    23497420.708     9194932.332 8  11513123.390 6
  18832338.530    18832339.197    -3892840.740 9  -8232675.270 8
  19284032.575    19284035.037   -24145286.026 9  28088545.264 9
  20320710.500    20320712.689   -12429473.375 9 -10329300.072 8
 89 11 27 10 33 29.0800000  0  4G 2G 6G11G 9
  23512878.025    23512881.095     9276174.724 7  11576429.103 6
  18829059.117    18829059.771    -3910074.272 9  -8246103.989 8
  19274678.114    19274679.320   -24194447.742 9  28050237.464 8
  20305671.110    20305673.256   -12508508.312 9 -10390885.705 7
 89 11 27 10 33 59.0800000  0  4G 2G 6G11G 9
  23528337.339    23528339.664     9357411.922 8  11639730.817 6
  18825853.677    18825854.902    -3926915.848 9  -8259227.284 7
  19265422.377    19265425.530   -24243079.044 9  28012342.957 8
  20290662.941    20290665.356   -12587375.805 9 -10452340.861 8
 89 11 27 10 34 29.0800000  0  4G 2G 6G11G 9
  23543794.121    23543800.085     9438644.181 7  11703028.681 5
  18822723.574    18822724.329    -3943363.591 9  -8272043.714 8
  19256270.143    19256272.552   -24291178.686 9  27974862.734 8
  20275686.634    20275688.212   -12666073.620 9 -10513663.830 8
 89 11 27 10 34 59.0800000  0  4G 2G 6G11G 9
  23559251.648    23559253.865     9519871.460 7  11766322.649 5
  18819669.513    18819670.984    -3959415.381 8  -8284551.608 8
  19247218.259    19247220.825   -24338745.655 9  27937797.595 8
  20260744.627    20260745.988   -12744599.183 9 -10574852.534 7
 89 11 27 10 35 29.0800000  0  4G 2G 6G11G 9
  23574708.696    23574711.212     9601093.804 7  11829612.806 7
  18816690.591    18816692.153    -3975069.281 9  -8296749.443 8
  19238268.120    19238270.805   -24385778.944 9  27901148.287 8
  20245835.204    20245836.986   -12822950.392 9 -10635905.402 8
 89 11 27 10 35 59.0800000  0  4G 2G 6G11G 9
  23590163.222    23590166.902     9682311.290 7  11892899.151 5
  18813787.798    18813788.230    -3990323.606 9  -8308635.933 8
  19229419.975    19229422.069   -24432277.927 9  27864915.347 8
  20230958.736    20230960.599   -12901124.947 9 -10696820.618 8
 89 11 27 10 36 29.0800000  0  4G 2G 6G11G 9
  23605616.824    23605619.958     9763523.917 6  11956181.702 4
  18810961.374    18810962.467    -4005176.264 8  -8320209.420 8
  19220672.646    19220676.166   -24478241.752 9  27829099.403 8
  20216116.660    20216118.028   -12979120.643 9 -10757596.473 8
 89 11 27 10 36 59.0800000  0  4G 2G 6G11G 9
  23621069.886    23621074.817     9844731.117 6  12019460.106 5
  18808212.053    18808213.428    -4019625.550 8  -8331468.619 7
  19212028.682    19212029.671   -24523669.361 9  27793701.273 8
  20201309.199    20201310.915   -13056935.124 9 -10818231.113 7
 89 11 27 10 37 29.0800000  0  4G 2G 6G11G 9
  23636523.459    23636526.122     9925933.576 7  12082734.776 5
  18805538.729    18805540.713    -4033669.410 8  -8342411.887 7
  19203485.300    19203487.737   -24568559.816 9  27758721.713 8
  20186536.242    20186536.922   -13134566.001 9 -10878722.701 8
 89 11 27 10 37 59.0800000  0  4G 2G 6G11G 9
  23651974.395    23651977.651    10007130.768 3  12146005.288 1
  18802944.346    18802946.048    -4047306.114 9  -8353037.887 8
  19195045.989    19195047.272   -24612912.548 9  27724161.172 8
  20171799.016    20171799.616   -13212011.306 9 -10939069.666 8
 89 11 27 10 38 29.0800000  0  4G 2G 6G11G 9
                                  10088303.871 1  12259344.490 1
  18800427.357    18800429.441    -4060533.811 9  -8363345.194 9
  19186708.371    19186710.513   -24656726.789 9  27690020.218 8
  20157097.334    20157099.066   -13289268.491 9 -10999270.051 7
 89 11 27 10 38 59.0800000  0  4G 2G 6G11G 9
                                 -29125939.100 1  12487344.490 1
  18797988.462    18797990.942    -4073350.572 9  -8373332.265 8
  19178472.142    19178476.106   -24700001.669 9  27656299.553 8
  20142431.689    20142434.127   -13366335.377 9 -11059322.162 8
